EA1CUE-WX Weather Reports


Display with metric or nautical units.
time (UTC)temp
F
wind
direction
speed
MPH
gust
MPH
rain 1hr
in
rain 24hr
in
rain mn
in
humidity
%
barometer
mb
20260508080846 46 90 1.0 2.0 0.04 0.29 0.00 1 1007.4
20260508080346 46 75 0.0 0.0 0.01 0.25 0.00 1 1007.7
20260508075846 46 75 0.0 1.0 0.01 0.25 0.00 1 1007.4
20260508075346 46 340 0.0 0.0 0.01 0.25 0.00 1 1007.3
20260508074846 46 338 0.0 0.0 0.01 0.25 0.00 1 1007.2
20260508074346 46 333 0.0 1.0 0.01 0.25 0.00 1 1007.3
20260508073846 46 325 0.0 1.0 0.00 0.25 0.00 1 1007.2
20260508073346 46 54 0.0 0.0 0.00 0.25 0.00 1 1007.3
20260508072846 46 54 0.0 0.0 0.00 0.25 0.00 1 1007.2
20260508072346 46 54 0.0 0.0 0.00 0.24 0.00 1 1007.5
20260508071846 46 54 0.0 0.0 0.00 0.24 0.00 1 1007.4
20260508071346 46 54 0.0 1.0 0.01 0.24 0.00 1 1007.4
20260508070846 46 54 0.0 1.0 0.01 0.24 0.00 1 1007.4
20260508070346 46 101 0.0 3.0 0.01 0.24 0.00 1 1007.4
20260508065846 46 91 1.0 4.0 0.02 0.24 0.00 1 1007.6
20260508065346 46 82 3.0 4.0 0.02 0.24 0.00 1 1007.4
20260508064846 46 100 0.0 4.0 0.03 0.24 0.00 1 1007.2
20260508064346 46 112 2.0 2.0 0.03 0.24 0.00 1 1006.9
20260508063846 46 108 0.0 1.0 0.04 0.24 0.00 1 1006.7
20260508063346 46 3 0.0 0.0 0.04 0.24 0.00 1 1006.8
20260508062846 46 106 0.0 0.0 0.04 0.24 0.00 1 1007.2
20260508062346 46 107 0.0 0.0 0.03 0.23 0.00 1 1007.4
20260508061846 46 107 0.0 2.0 0.04 0.23 0.00 1 1007.3
20260508061346 46 33 0.0 0.0 0.03 0.22 0.00 1 1007.3
20260508060846 46 359 0.0 0.0 0.04 0.22 0.00 1 1007.2
20260508060346 46 323 0.0 0.0 0.05 0.22 0.00 1 1007.2
20260508055846 46 320 0.0 1.0 0.05 0.22 0.00 1 1007.2
20260508055346 46 316 0.0 6.0 0.06 0.22 0.00 1 1007.3
20260508054846 47 274 0.0 2.0 0.07 0.21 0.00 1 1007.3
20260508054346 47 295 1.0 4.0 0.07 0.20 0.00 1 1007.3
20260508053846 46 285 0.0 1.0 0.07 0.19 0.00 1 1007.4
20260508053346 46 285 0.0 1.0 0.08 0.19 0.00 1 1007.3
20260508052846 46 303 0.0 3.0 0.08 0.19 0.00 1 1007.1
20260508052346 46 303 3.0 3.0 0.08 0.19 0.00 1 1007.0
20260508051846 46 340 0.0 0.0 0.07 0.18 0.00 1 1006.8
20260508051346 46 340 0.0 0.0 0.09 0.18 0.00 1 1006.7
20260508050846 46 336 0.0 1.0 0.08 0.18 0.00 1 1006.7
20260508050346 46 257 0.0 3.0 0.07 0.18 0.00 1 1006.7
20260508045846 47 264 2.0 2.0 0.07 0.17 0.00 1 1006.6
20260508045346 46 63 0.0 1.0 0.06 0.16 0.00 1 1006.7
20260508044846 46 67 1.0 2.0 0.04 0.14 0.00 1 1006.8
20260508044346 46 273 0.0 0.0 0.03 0.13 0.00 1 1006.8
20260508043846 46 273 0.0 0.0 0.02 0.12 0.00 1 1006.8
20260508043346 46 273 0.0 1.0 0.01 0.11 0.00 1 1006.7
20260508042846 46 273 0.0 0.0 0.01 0.11 0.00 1 1006.5
20260508042346 46 273 0.0 0.0 0.01 0.11 0.00 1 1006.7
20260508041846 46 273 0.0 0.0 0.01 0.11 0.00 1 1006.8
20260508041346 46 273 0.0 0.0 0.00 0.10 0.00 1 1006.8
20260508040846 46 273 0.0 0.0 0.00 0.10 0.00 1 1006.8
20260508040346 46 273 0.0 0.0 0.00 0.10 0.00 1 1006.8
20260508035846 46 273 0.0 1.0 0.00 0.10 0.00 1 1006.8
20260508035346 46 235 0.0 0.0 0.00 0.10 0.00 1 1006.9
20260508034846 46 235 0.0 0.0 0.00 0.10 0.00 1 1007.0
20260508034347 46 235 0.0 0.0 0.00 0.10 0.00 1 1007.1
20260508033846 46 235 0.0 0.0 0.00 0.10 0.00 1 1007.1
20260508033346 46 235 0.0 0.0 0.00 0.10 0.00 1 1007.2
20260508032846 46 235 0.0 0.0 0.00 0.10 0.00 1 1007.3
20260508032346 46 235 0.0 0.0 0.00 0.10 0.00 1 1007.4
20260508031846 46 235 0.0 0.0 0.00 0.10 0.00 1 1007.4
20260508031346 46 235 0.0 0.0 0.00 0.10 0.00 1 1007.4
20260508030846 46 235 0.0 0.0 0.00 0.10 0.00 1 1007.5
20260508030346 46 235 0.0 0.0 0.00 0.10 0.00 1 1007.5
20260508025846 46 235 0.0 0.0 0.00 0.10 0.00 1 1007.6
20260508025346 46 235 0.0 0.0 0.00 0.10 0.00 1 1007.7
20260508024846 46 233 0.0 0.0 0.00 0.10 0.00 1 1007.7
20260508024346 46 233 0.0 0.0 0.00 0.10 0.00 1 1007.7
20260508023846 46 233 0.0 0.0 0.00 0.10 0.00 1 1007.8
20260508023346 46 233 0.0 0.0 0.00 0.10 0.00 1 1007.9
20260508022846 46 233 0.0 0.0 0.00 0.10 0.00 1 1008.1
20260508022346 46 233 0.0 0.0 0.00 0.10 0.00 1 1008.1
20260508021846 46 233 0.0 0.0 0.00 0.10 0.00 1 1008.0
20260508021346 46 233 0.0 0.0 0.00 0.10 0.00 1 1008.0
20260508020846 46 233 0.0 0.0 0.00 0.10 0.00 1 1008.2
20260508020346 46 233 0.0 0.0 0.00 0.10 0.00 1 1008.3
20260508015346 46 233 0.0 0.0 0.00 0.10 0.00 1 1008.3
20260508014847 46 233 0.0 0.0 0.00 0.10 0.00 1 1008.4
20260508014346 46 233 0.0 0.0 0.00 0.10 0.00 1 1008.5
20260508013846 46 233 0.0 0.0 0.00 0.10 0.00 1 1008.7
20260508013346 46 233 0.0 0.0 0.00 0.10 0.00 1 1008.8
20260508012846 46 233 0.0 1.0 0.00 0.10 0.00 1 1008.9
20260508012346 46 236 0.0 0.0 0.00 0.10 0.00 1 1009.0
20260508011846 46 275 0.0 0.0 0.00 0.10 0.00 1 1009.1
20260508011346 46 275 0.0 0.0 0.00 0.10 0.00 1 1009.1
20260508010846 46 275 0.0 0.0 0.00 0.10 0.00 1 1009.2
20260508010346 46 275 0.0 0.0 0.00 0.10 0.00 1 1009.2
20260508005846 47 275 0.0 0.0 0.00 0.10 0.00 1 1009.3
20260508005346 47 275 0.0 0.0 0.00 0.10 0.00 1 1009.3
20260508004846 47 271 0.0 0.0 0.00 0.10 0.00 1 1009.4
20260508004346 47 271 0.0 0.0 0.00 0.10 0.00 1 1009.5
20260508003846 47 271 0.0 0.0 0.00 0.10 0.00 1 1009.7
20260508003346 47 271 0.0 1.0 0.00 0.10 0.00 1 1009.7
20260508002846 47 259 0.0 0.0 0.00 0.10 0.00 1 1009.9
20260508002346 47 259 0.0 0.0 0.00 0.10 0.00 1 1010.0
20260508001846 47 259 0.0 0.0 0.00 0.10 0.00 1 1010.2
20260508001346 47 259 0.0 0.0 0.00 0.10 0.00 1 1010.3
20260508000846 47 259 0.0 1.0 0.00 0.10 0.00 1 1010.4
20260508000346 47 124 0.0 2.0 0.00 0.10 0.00 1 1010.5
20260507235846 47 115 2.0 4.0 0.00 0.10 0.00 1 1010.3
20260507235346 47 91 1.0 6.0 0.00 0.10 0.00 1 1010.5
20260507234846 47 99 3.0 7.0 0.00 0.10 0.00 1 1010.7
20260507234346 47 86 0.0 2.0 0.00 0.10 0.00 1 1010.9
20260507233846 47 289 0.0 1.0 0.00 0.10 0.00 1 1010.8
20260507233346 47 289 0.0 0.0 0.00 0.10 0.00 1 1010.7
20260507232846 47 289 0.0 0.0 0.00 0.10 0.00 1 1010.6
20260507232346 47 289 0.0 0.0 0.00 0.10 0.00 1 1010.6
20260507231846 47 289 0.0 0.0 0.00 0.10 0.00 1 1010.8
20260507231346 47 289 0.0 2.0 0.00 0.10 0.00 1 1010.9
20260507230846 47 290 0.0 2.0 0.00 0.10 0.00 1 1010.8
20260507230346 47 264 0.0 0.0 0.00 0.10 0.00 1 1010.9
20260507225846 47 264 0.0 0.0 0.00 0.10 0.00 1 1010.9
20260507225346 47 264 0.0 1.0 0.00 0.10 0.00 1 1011.0
20260507224846 47 264 0.0 0.0 0.00 0.10 0.00 1 1011.0
20260507224346 47 264 0.0 0.0 0.00 0.10 0.00 1 1011.0
20260507223846 47 264 0.0 0.0 0.00 0.10 0.00 1 1011.0
20260507223346 47 264 0.0 0.0 0.00 0.10 0.00 1 1011.2
20260507222846 47 264 0.0 0.0 0.00 0.10 0.00 1 1011.2
20260507222346 47 248 0.0 0.0 0.00 0.10 0.00 1 1011.2
20260507221846 47 245 0.0 0.0 0.00 0.10 0.00 1 1011.1
20260507221346 47 245 0.0 0.0 0.00 0.10 0.00 1 1011.1
20260507220846 47 245 0.0 0.0 0.00 0.10 0.00 1 1011.1
20260507220346 47 204 0.0 0.0 0.00 0.10 0.00 1 1011.0
20260507215846 47 120 0.0 0.0 0.00 0.10 0.00 1 1011.1
20260507215346 48 125 0.0 2.0 0.00 0.10 0.00 1 1011.1
20260507214846 48 102 0.0 0.0 0.00 0.10 0.00 1 1011.2
20260507214346 48 103 0.0 2.0 0.00 0.10 0.00 1 1011.2
20260507213846 48 78 1.0 2.0 0.00 0.10 0.00 1 1011.3
20260507213346 48 118 1.0 3.0 0.02 0.10 0.00 1 1011.2
20260507212846 48 165 0.0 2.0 0.03 0.10 0.00 1 1011.3
20260507212346 48 162 0.0 4.0 0.04 0.10 0.00 1 1011.2
20260507211846 48 128 0.0 4.0 0.05 0.10 0.00 1 1011.1
20260507211346 48 166 0.0 1.0 0.05 0.10 0.00 1 1011.1
20260507210846 48 92 0.0 1.0 0.06 0.10 0.00 1 1011.0
20260507210346 49 327 0.0 0.0 0.06 0.10 0.00 1 1010.9
20260507205846 49 328 0.0 2.0 0.07 0.10 0.00 1 1011.0
20260507205346 49 277 0.0 6.0 0.07 0.10 0.00 1 1010.9
20260507204846 49 302 3.0 6.0 0.07 0.10 0.00 1 1010.9
20260507204346 49 293 0.0 2.0 0.06 0.09 0.00 1 1011.0
20260507203846 49 307 1.0 2.0 0.07 0.09 0.00 1 1010.9
20260507203346 50 304 0.0 1.0 0.06 0.07 0.00 1 1011.0
20260507202846 49 299 0.0 3.0 0.05 0.06 0.00 1 1011.0
20260507202346 49 302 2.0 4.0 0.04 0.05 0.00 1 1010.9
20260507201846 49 283 0.0 1.0 0.03 0.04 0.00 1 1010.8
20260507201346 49 283 0.0 0.0 0.03 0.04 0.00 1 1010.7
20260507200846 49 283 0.0 1.0 0.03 0.03 0.00 1 1010.7
20260507200346 49 304 0.0 0.0 0.03 0.03 0.00 1 1010.5
20260507195846 50 41 0.0 0.0 0.02 0.03 0.00 1 1010.4
20260507195346 50 73 0.0 0.0 0.02 0.03 0.00 1 1010.3
20260507194846 49 74 0.0 0.0 0.02 0.03 0.00 1 1010.3
20260507194346 50 77 0.0 0.0 0.02 0.03 0.00 1 1010.2
20260507193846 50 61 0.0 4.0 0.01 0.02 0.00 1 1010.1
20260507193346 51 160 0.0 4.0 0.00 0.01 0.00 4 1010.1
20260507192846 52 248 0.0 8.0 0.00 0.00 0.00 19 1010.0
20260507191846 53 103 3.0 6.0 0.00 0.00 0.00 35 1009.9
20260507191346 54 84 0.0 8.0 0.00 0.00 0.00 40 1009.8
20260507190846 55 71 3.0 6.0 0.00 0.00 0.00 44 1009.8
20260507190346 55 83 1.0 3.0 0.00 0.00 0.00 44 1009.7
20260507185846 56 80 1.0 2.0 0.00 0.00 0.00 47 1009.6
20260507185346 56 287 0.0 1.0 0.00 0.00 0.00 48 1009.3
20260507184846 56 304 0.0 4.0 0.00 0.00 0.00 49 1009.2
20260507184346 57 310 1.0 2.0 0.00 0.00 0.00 49 1009.1
20260507183846 57 315 0.0 4.0 0.00 0.00 0.00 50 1009.2
20260507183347 58 237 0.0 1.0 0.00 0.00 0.00 51 1009.1
20260507182846 58 338 0.0 3.0 0.00 0.00 0.00 51 1009.0
20260507182346 59 333 0.0 4.0 0.00 0.00 0.00 51 1009.0
20260507181846 59 330 0.0 1.0 0.00 0.00 0.00 51 1009.0
20260507181346 59 317 0.0 1.0 0.00 0.00 0.00 51 1008.9
20260507180846 59 333 0.0 3.0 0.00 0.00 0.00 51 1008.9
20260507180346 59 31 0.0 1.0 0.00 0.00 0.00 51 1008.8
20260507175846 58 316 0.0 0.0 0.00 0.00 0.00 51 1008.8
20260507175346 58 326 0.0 1.0 0.00 0.00 0.00 52 1008.8
20260507174846 57 344 0.0 2.0 0.00 0.00 0.00 53 1008.7
20260507174346 57 307 0.0 3.0 0.00 0.00 0.00 54 1008.6
20260507173846 57 311 0.0 5.0 0.00 0.00 0.00 54 1008.5
20260507173346 57 330 2.0 6.0 0.00 0.00 0.00 52 1008.4
20260507172846 58 306 4.0 10.0 0.00 0.00 0.00 50 1008.4
20260507172346 58 273 3.0 12.0 0.00 0.00 0.00 49 1008.3
20260507171846 58 295 3.0 13.0 0.00 0.00 0.00 49 1008.2
20260507171346 58 306 4.0 12.0 0.00 0.00 0.00 49 1008.1
20260507170846 58 275 5.0 12.0 0.00 0.00 0.00 49 1008.0
20260507170346 58 285 10.0 10.0 0.00 0.00 0.00 51 1008.0
20260507165846 58 222 2.0 13.0 0.00 0.00 0.00 52 1008.0
20260507165346 58 258 3.0 11.0 0.00 0.00 0.00 52 1007.9
20260507164846 58 280 2.0 9.0 0.00 0.00 0.00 53 1007.9
20260507164346 58 285 5.0 14.0 0.00 0.00 0.00 52 1008.0
20260507163846 59 303 6.0 12.0 0.00 0.00 0.00 52 1008.0
20260507163346 60 341 2.0 11.0 0.00 0.00 0.00 52 1008.0
20260507162846 61 358 6.0 15.0 0.00 0.00 0.00 51 1007.8
20260507162346 62 289 10.0 12.0 0.00 0.00 0.00 50 1007.9
20260507161846 62 260 7.0 13.0 0.00 0.00 0.00 48 1007.9
20260507161346 62 322 6.0 11.0 0.00 0.00 0.00 50 1007.9
20260507160846 62 294 1.0 11.0 0.00 0.00 0.00 50 1007.8
20260507160346 63 305 3.0 13.0 0.00 0.00 0.00 50 1007.8
20260507155846 63 283 3.0 12.0 0.00 0.00 0.00 50 1007.7
20260507155346 63 0 5.0 10.0 0.00 0.00 0.00 49 1007.6
20260507154846 63 325 4.0 8.0 0.00 0.00 0.00 50 1007.5
20260507154346 63 247 1.0 9.0 0.00 0.00 0.00 50 1007.4
20260507153846 62 330 2.0 7.0 0.00 0.00 0.00 50 1007.4
20260507153346 61 340 2.0 10.0 0.00 0.00 0.00 51 1007.4
20260507152846 60 309 3.0 10.0 0.00 0.00 0.00 51 1007.5
20260507152346 61 269 6.0 11.0 0.00 0.00 0.00 51 1007.3
20260507151846 61 242 1.0 10.0 0.00 0.00 0.00 50 1007.4
20260507151346 61 266 6.0 13.0 0.00 0.00 0.00 50 1007.4
20260507150846 60 255 10.0 12.0 0.00 0.00 0.00 50 1007.5
20260507150346 60 261 3.0 10.0 0.00 0.00 0.00 52 1007.6
20260507145846 60 272 4.0 11.0 0.00 0.00 0.00 53 1007.6
20260507145346 61 274 2.0 13.0 0.00 0.00 0.00 52 1007.7
20260507144846 63 249 2.0 5.0 0.00 0.00 0.00 41 1007.6
20260507144346 63 287 2.0 6.0 0.00 0.00 0.00 42 1007.5
20260507143846 64 106 1.0 4.0 0.00 0.00 0.00 43 1007.6
20260507143346 64 229 0.0 5.0 0.00 0.00 0.00 44 1007.5
20260507142846 64 143 3.0 5.0 0.00 0.00 0.00 46 1007.4
20260507142346 63 309 0.0 5.0 0.00 0.00 0.00 46 1007.4
20260507141846 63 129 3.0 5.0 0.00 0.00 0.00 46 1007.4
20260507141346 63 96 2.0 5.0 0.00 0.00 0.00 47 1007.6
20260507140846 62 105 1.0 6.0 0.00 0.00 0.00 49 1007.5
20260507140346 62 100 4.0 8.0 0.00 0.00 0.00 48 1007.5
20260507135846 63 108 2.0 9.0 0.00 0.00 0.00 47 1007.5
20260507135346 64 70 6.0 7.0 0.00 0.00 0.00 45 1007.6
20260507134846 64 302 2.0 5.0 0.00 0.00 0.00 46 1007.5
20260507134346 63 123 3.0 6.0 0.00 0.00 0.00 43 1007.5
20260507133846 64 284 5.0 9.0 0.00 0.00 0.00 45 1007.4
20260507133346 64 208 2.0 8.0 0.00 0.00 0.00 44 1007.4
20260507132846 64 224 5.0 9.0 0.00 0.00 0.00 45 1007.5
20260507132346 64 229 2.0 8.0 0.00 0.00 0.00 42 1007.4
20260507131846 64 212 5.0 7.0 0.00 0.00 0.00 45 1007.5
20260507131346 63 287 1.0 7.0 0.00 0.00 0.00 44 1007.5
20260507130846 63 84 4.0 6.0 0.00 0.00 0.00 45 1007.6
20260507130346 63 122 5.0 7.0 0.00 0.00 0.00 44 1007.5
20260507125846 63 213 3.0 6.0 0.00 0.00 0.00 44 1007.6
20260507125346 63 82 5.0 8.0 0.00 0.00 0.00 47 1007.5
20260507124846 63 72 4.0 8.0 0.00 0.00 0.00 45 1007.5
20260507124346 63 307 3.0 5.0 0.00 0.00 0.00 44 1007.6
20260507123846 62 233 1.0 5.0 0.00 0.00 0.00 41 1007.7
20260507123346 63 173 3.0 8.0 0.00 0.00 0.00 41 1007.7
20260507122846 63 255 2.0 12.0 0.00 0.00 0.00 45 1007.7
20260507122346 62 103 9.0 9.0 0.00 0.00 0.00 45 1007.8
20260507121846 62 124 6.0 16.0 0.00 0.00 0.00 44 1007.8
20260507121346 62 259 1.0 9.0 0.00 0.00 0.00 46 1008.0
20260507120846 62 217 4.0 6.0 0.00 0.00 0.00 46 1008.0
20260507120346 62 310 2.0 4.0 0.00 0.00 0.00 48 1008.0
20260507115846 62 300 1.0 4.0 0.00 0.00 0.00 48 1008.1
20260507115346 61 117 0.0 3.0 0.00 0.00 0.00 48 1008.0
20260507114846 62 259 3.0 3.0 0.00 0.00 0.00 48 1008.1
20260507114346 62 85 0.0 3.0 0.00 0.00 0.00 47 1008.1
20260507113846 61 275 0.0 4.0 0.00 0.00 0.00 47 1008.1
20260507113346 61 119 3.0 4.0 0.00 0.00 0.00 46 1008.1
20260507112846 60 331 0.0 5.0 0.00 0.00 0.00 41 1008.0
20260507112346 59 64 4.0 6.0 0.00 0.00 0.00 45 1008.1
20260507111846 59 120 4.0 7.0 0.00 0.00 0.00 46 1008.2
20260507111346 59 101 3.0 8.0 0.00 0.00 0.00 46 1008.2
20260507110846 60 107 1.0 6.0 0.00 0.00 0.00 44 1008.2
20260507110346 60 101 5.0 8.0 0.00 0.00 0.00 41 1008.2
20260507105846 59 240 1.0 6.0 0.00 0.00 0.00 44 1008.2
20260507105346 60 162 5.0 9.0 0.00 0.00 0.00 43 1008.3
20260507103346 58 101 2.0 8.0 0.00 0.00 0.00 43 1008.4
20260507102846 59 47 3.0 7.0 0.00 0.00 0.00 38 1008.4
20260507102346 58 30 0.0 5.0 0.00 0.00 0.00 32 1008.4
20260507101846 58 93 3.0 9.0 0.00 0.00 0.00 35 1008.5
20260507101347 58 42 0.0 8.0 0.00 0.00 0.00 20 1008.4
20260507100846 57 91 2.0 3.0 0.00 0.00 0.00 25 1008.5
20260507100346 57 351 1.0 6.0 0.00 0.00 0.00 22 1008.5
20260507095846 57 273 0.0 6.0 0.00 0.00 0.00 23 1008.5
20260507095346 57 47 2.0 6.0 0.00 0.00 0.00 17 1008.5
20260507094846 56 333 0.0 7.0 0.00 0.00 0.00 8 1008.5
20260507094346 55 70 6.0 7.0 0.00 0.00 0.00 17 1008.6
20260507093846 56 75 4.0 7.0 0.00 0.00 0.00 19 1008.5
20260507093346 56 94 2.0 5.0 0.00 0.00 0.00 14 1008.6
20260507092846 56 316 1.0 4.0 0.00 0.00 0.00 12 1008.7
20260507092346 55 357 0.0 5.0 0.00 0.00 0.00 10 1008.6
20260507091846 55 45 2.0 5.0 0.00 0.00 0.00 1 1008.7
20260507091346 54 96 3.0 4.0 0.00 0.00 0.00 1 1008.6
20260507090846 54 48 0.0 6.0 0.00 0.00 0.00 3 1008.6
20260507090346 54 30 0.0 6.0 0.00 0.00 0.00 1 1008.7
20260507085846 53 94 0.0 7.0 0.00 0.00 0.00 1 1008.6
20260507085346 53 87 0.0 5.0 0.00 0.00 0.00 1 1008.6
20260507084846 53 144 2.0 6.0 0.00 0.00 0.00 1 1008.6
20260507084346 53 98 4.0 6.0 0.00 0.00 0.00 1 1008.6
20260507083846 52 113 2.0 8.0 0.00 0.00 0.00 2 1008.6
20260507083346 53 20 1.0 6.0 0.00 0.00 0.00 1 1008.6
20260507082846 53 30 1.0 2.0 0.00 0.00 0.00 1 1008.6
20260507082346 52 56 0.0 5.0 0.00 0.00 0.00 1 1008.6
20260507081846 51 93 6.0 6.0 0.00 0.00 0.00 1 1008.7
20260507081346 51 74 2.0 5.0 0.00 0.00 0.00 1 1008.8